| time (UTC) | temp F | wind direction | speed MPH | gust MPH | rain 1hr in | rain 24hr in | rain mn in | humidity % | barometer mb |
| 20260906080605 | 57 | 101 | 0.0 | 0.0 | 0.00 | 0.00 | 0.00 | 23 | 1021.6 |
| 20260906080111 | 57 | 91 | 0.0 | 0.0 | 0.00 | 0.00 | 0.00 | 23 | 1021.6 |
| 20260906070605 | 57 | 97 | 0.0 | 0.0 | 0.00 | 0.00 | 0.00 | 21 | 1021.8 |
| 20260906070110 | 57 | 94 | 0.0 | 0.0 | 0.00 | 0.00 | 0.00 | 21 | 1021.8 |
| 20260906060605 | 56 | 99 | 0.0 | 0.0 | 0.00 | 0.00 | 0.00 | 24 | 1022.1 |
| 20260906060112 | 56 | 104 | 0.0 | 0.0 | 0.00 | 0.00 | 0.00 | 24 | 1022.1 |
| 20260906050606 | 56 | 122 | 0.0 | 0.0 | 0.00 | 0.00 | 0.00 | 29 | 1022.0 |
| 20260906050112 | 56 | 110 | 0.0 | 0.0 | 0.00 | 0.00 | 0.00 | 28 | 1021.9 |
| 20260906040607 | 59 | 21 | 0.0 | 1.0 | 0.00 | 0.00 | 0.00 | 26 | 1022.0 |
| 20260906040112 | 59 | 21 | 0.0 | 0.0 | 0.00 | 0.00 | 0.00 | 26 | 1021.9 |
| 20260906030606 | 62 | 19 | 0.0 | 1.0 | 0.00 | 0.00 | 0.00 | 20 | 1021.3 |
| 20260906030113 | 62 | 20 | 0.0 | 1.0 | 0.00 | 0.00 | 0.00 | 20 | 1021.1 |
| 20260906020607 | 67 | 17 | 0.0 | 0.0 | 0.00 | 0.00 | 0.00 | 16 | 1020.6 |
| 20260906020112 | 68 | 16 | 0.0 | 1.0 | 0.00 | 0.00 | 0.00 | 15 | 1020.6 |
| 20260906010606 | 76 | 13 | 0.0 | 5.0 | 0.00 | 0.00 | 0.00 | 10 | 1020.6 |
| 20260906000606 | 80 | 198 | 1.0 | 6.0 | 0.00 | 0.00 | 0.00 | 9 | 1020.4 |
| 20260905230606 | 81 | 193 | 1.0 | 8.0 | 0.00 | 0.00 | 0.00 | 10 | 1020.3 |
| 20260905230112 | 82 | 188 | 1.0 | 8.0 | 0.00 | 0.00 | 0.00 | 10 | 1020.2 |
| 20260905220605 | 81 | 121 | 1.0 | 7.0 | 0.00 | 0.00 | 0.00 | 10 | 1020.7 |
| 20260905210606 | 80 | 207 | 2.0 | 8.0 | 0.00 | 0.00 | 0.00 | 10 | 1021.2 |
| 20260905210111 | 80 | 187 | 2.0 | 8.0 | 0.00 | 0.00 | 0.00 | 12 | 1021.2 |
| 20260905200606 | 80 | 257 | 1.0 | 7.0 | 0.00 | 0.00 | 0.00 | 16 | 1021.8 |
| 20260905200111 | 79 | 197 | 3.0 | 8.0 | 0.00 | 0.00 | 0.00 | 16 | 1021.8 |
| 20260905190606 | 78 | 169 | 3.0 | 8.0 | 0.00 | 0.00 | 0.00 | 19 | 1022.2 |
| 20260905190111 | 78 | 142 | 2.0 | 9.0 | 0.00 | 0.00 | 0.00 | 19 | 1022.3 |
| 20260905180605 | 76 | 222 | 2.0 | 10.0 | 0.00 | 0.00 | 0.00 | 23 | 1022.7 |
| 20260905180112 | 76 | 198 | 2.0 | 10.0 | 0.00 | 0.00 | 0.00 | 23 | 1022.9 |
| 20260905170605 | 72 | 16 | 1.0 | 6.0 | 0.00 | 0.00 | 0.00 | 30 | 1023.3 |
| 20260905170112 | 71 | 13 | 1.0 | 6.0 | 0.00 | 0.00 | 0.00 | 30 | 1023.4 |
| 20260905160606 | 71 | 170 | 1.0 | 8.0 | 0.00 | 0.00 | 0.00 | 32 | 1023.2 |
| 20260905150606 | 67 | 13 | 2.0 | 7.0 | 0.00 | 0.00 | 0.00 | 35 | 1023.0 |
| 20260905140111 | 58 | 20 | 3.0 | 6.0 | 0.00 | 0.00 | 0.00 | 49 | 1022.8 |
| 20260905130605 | 56 | 98 | 1.0 | 5.0 | 0.00 | 0.00 | 0.00 | 50 | 1022.4 |
| 20260905130111 | 56 | 86 | 0.0 | 6.0 | 0.00 | 0.00 | 0.00 | 49 | 1022.3 |
| 20260905120606 | 56 | 89 | 1.0 | 6.0 | 0.00 | 0.00 | 0.00 | 50 | 1022.0 |
| 20260905110605 | 53 | 124 | 0.0 | 0.0 | 0.00 | 0.00 | 0.00 | 50 | 1022.0 |
| 20260905100111 | 53 | 121 | 0.0 | 1.0 | 0.00 | 0.00 | 0.00 | 47 | 1021.6 |
| 20260905090605 | 53 | 133 | 0.0 | 0.0 | 0.00 | 0.00 | 0.00 | 43 | 1021.6 |
| 20260905090111 | 54 | 135 | 0.0 | 0.0 | 0.00 | 0.00 | 0.00 | 43 | 1021.6 |